Regional Weather Roundup
Issued by NWS

Home | Current Version | Previous Version | Text Only | Print | Product List | Glossary On
Versions: 1 2 3 4 5 6 7 8 9 10 11 12 13 14 15 16 17 18 19 20 21 22 23 24 25 26 27 28 29 30 31 32 33 34 35 36 37 38 39 40 41 42 43 44 45 46 47 48 49 50
000
ASUS43 KTOP 190508
RWRKS

WEATHER ROUNDUP FOR KANSAS
NATIONAL WEATHER SERVICE GOODLAND KS
1200 AM CDT THU OCT 19 2017

NOTE:  "FAIR" INDICATES FEW OR NO CLOUDS BELOW 12,000 FEET WITH NO
SIGNIFICANT WEATHER AND/OR OBSTRUCTIONS TO VISIBILITY.

KSZ001>006-013>018-027>032-041>047-190600-
NORTHWEST KANSAS

CITY           SKY/WX    TMP DP  RH WIND       PRES   REMARKS
GOODLAND       CLEAR     46  35  65 SE8       30.11S
HAYS           CLEAR     53  39  59 N5        30.06S
HILL CITY      CLEAR     49  38  65 CALM      30.09S
RUSSELL        CLEAR     52  41  66 NW7       30.04S
$$

KSZ061>065-074>080-084>089-190600-
SOUTHWEST KANSAS

CITY           SKY/WX    TMP DP  RH WIND       PRES   REMARKS
DODGE CITY     CLEAR     52  45  77 CALM      30.08R
ELKHART          N/A     52  43  72 S7          N/A
GARDEN CITY    CLEAR     55  40  56 NE7       30.08S
GREAT BEND     CLEAR     52  47  83 S6        30.06S
LIBERAL        CLEAR     55  48  77 SW5       30.08
PRATT          CLEAR     54  47  75 S7        30.06R
$$

KSZ066>073-081>083-090>101-190600-
SOUTHEAST KANSAS

CITY           SKY/WX    TMP DP  RH WIND       PRES   REMARKS
CHANUTE        CLOUDY    56  48  74 S8        30.08R
COFFEYVILLE    CLEAR     53  48  83 SE6       30.08S
HUTCHINSON     CLEAR     56  49  77 SE6       30.05R
MEDICINE LODGE   N/A     61  46  57 SE5       30.05R
NEWTON         CLOUDY    56  48  74 S10       30.06S
PARSONS        CLEAR     56  48  74 S3        30.09S
WICHITA INTL   CLOUDY    58  50  75 S9        30.05R
WICHITA JABRA  CLOUDY    61  50  67 S8        30.05R
WICHITA MCCONL CLOUDY    59  48  67 SW8       30.05S
WINFIELD       CLEAR     58  51  78 S8        30.08R
$$

KSZ007>012-019>026-033>040-048>060-102>105-190600-
NORTHEAST KANSAS

CITY           SKY/WX    TMP DP  RH WIND       PRES   REMARKS
CONCORDIA      CLEAR     51  48  89 CALM      30.03F
EMPORIA        CLOUDY    54  48  80 S9        30.05S
LAWRENCE       CLEAR     53  50  89 E5        30.05S
MANHATTAN      CLEAR     50  48  93 CALM      30.04R
MARYSVILLE     CLEAR     50  46  87 NW6       30.03S
OLATHE IND     CLEAR     58  50  75 S10       30.07S
OLATHE EXE     CLEAR     57  50  77 SW5       30.07R
SALINA         CLEAR     56  51  84 S5        30.03S
TOPEKA BILLARD CLEAR     53  53 100 CALM      30.04R
TOPEKA FORBES  CLEAR     53  49  86 S3        30.05R
$$



USA.gov is the U.S. government's official web portal to all federal, state and local government web resources and services.